Terminal Aerodrome Forecast
Issued by NWS

Home | Current Version | Previous Version | Text Only | Print | Product List | Glossary On
Versions: 1 2 3 4 5 6 7 8 9 10 11 12
000
FTAK31 PAJN 282300
TAFAPG
TAF
PAPG 282325Z 2900/2924 04007KT P6SM SCT035 SCT080
     FM290600 VRB03KT P6SM SCT100
     FM291600 05006KT P6SM FEW100
      AMD LTD TO CLD VIS AND WIND 2906/2915=

USA.gov is the U.S. government's official web portal to all federal, state and local government web resources and services.